Charleston, SC

9:54 AM EDT on August 29, 2016 (GMT -0400)
Charleston Air Force Base-International

Weather History for KCHS - June, 2013

Change the Weather History Date:

Sunday, June 16, 2013

  Actual Average Record
Temperature  
Mean Temperature 76 °F 79 °F  
Max Temperature 87 °F 89 °F 100 °F (1981)
Min Temperature 65 °F 70 °F 55 °F (1955)
Degree Days  
Heating Degree Days 0 0  
Month to date heating degree days 0 0  
Since 1 June heating degree days 0 0  
Since 1 July heating degree days 1846 1975  
Cooling Degree Days 11 14  
Month to date cooling degree days 238 206  
Year to date cooling degree days 585 568  
Since 1 June cooling degree days 238 206  
Growing Degree Days 26 (Base 50)    
Moisture  
Dew Point 62 °F    
Average Humidity 65    
Maximum Humidity 87    
Minimum Humidity 43    
Precipitation  
Precipitation 0.00 in 0.20 in 4.28 in (1939)
Month to date precipitation 7.96 2.74  
Year to date precipitation 31.40 19.05  
Sea Level Pressure  
Sea Level Pressure 30.13 in    
Wind  
Wind Speed 4 mph (South)    
Max Wind Speed 15 mph    
Max Gust Speed 22 mph    
Visibility 10 miles    
Events      
T = Trace of Precipitation, MM = Missing Value Source: NWS Daily Summary

Daily Weather History Graph

Daily Weather History Graph

Search for Another Location

Airport or City:

Trip Planner

Search our weather history database for the weather conditions in past years. The results will help you decide how hot, cold, wet, or windy it might be!

Date:

Astronomy

Jun. 16, 2013 Rise Set
Actual Time 6:11 AM EDT 8:30 PM EDT
Civil Twilight 5:42 AM EDT 8:59 PM EDT
Nautical Twilight 5:07 AM EDT 9:34 PM EDT
Astronomical Twilight 4:29 AM EDT 10:12 PM EDT
Moon 1:23 PM EDT (6/16) 12:55 AM EDT (6/16)
Length of Visible Light 15h 16m
Length of Day
14h 19m
Waxing Crescent, 49% of the Moon is Illuminated
Jun 16
Waxing Crescent
Jun 16
First Quarter
Jun 23
Full
Jun 30
Last Quarter
Jul 8
New

Hourly Weather History & Observations

Time (EDT) Temp. Heat Index Dew Point Humidity Pressure Visibility Wind Dir Wind Speed Gust Speed Precip Events Conditions
12:56 AM 70.0 °F - 59.0 °F 68% 30.14 in 10.0 mi Calm Calm - N/A   Clear
1:56 AM 69.1 °F - 59.0 °F 70% 30.13 in 10.0 mi Calm Calm - N/A   Clear
2:56 AM 66.9 °F - 60.1 °F 79% 30.13 in 10.0 mi Calm Calm - N/A   Clear
3:56 AM 68.0 °F - 60.1 °F 76% 30.13 in 10.0 mi Calm Calm - N/A   Clear
4:56 AM 66.0 °F - 61.0 °F 84% 30.13 in 10.0 mi Calm Calm - N/A   Clear
5:56 AM 64.9 °F - 61.0 °F 87% 30.14 in 10.0 mi Calm Calm - N/A   Partly Cloudy
6:56 AM 68.0 °F - 63.0 °F 84% 30.16 in 10.0 mi Calm Calm - N/A   Scattered Clouds
7:56 AM 75.0 °F - 66.0 °F 73% 30.17 in 10.0 mi Calm Calm - N/A   Scattered Clouds
8:56 AM 79.0 °F - 64.0 °F 60% 30.17 in 10.0 mi South 5.8 mph - N/A   Scattered Clouds
9:56 AM 82.0 °F 83.1 °F 63.0 °F 52% 30.19 in 10.0 mi Variable 4.6 mph - N/A   Scattered Clouds
10:56 AM 80.1 °F 81.2 °F 62.1 °F 54% 30.17 in 10.0 mi Calm Calm - N/A   Scattered Clouds
11:56 AM 84.0 °F 84.4 °F 61.0 °F 46% 30.16 in 10.0 mi Variable 3.5 mph - N/A   Scattered Clouds
12:56 PM 84.0 °F 83.8 °F 59.0 °F 43% 30.14 in 10.0 mi Calm Calm - N/A   Scattered Clouds
1:56 PM 82.9 °F 83.7 °F 62.1 °F 49% 30.12 in 10.0 mi ESE 4.6 mph - N/A   Mostly Cloudy
2:56 PM 82.9 °F 84.0 °F 63.0 °F 51% 30.11 in 10.0 mi South 6.9 mph - N/A   Scattered Clouds
3:56 PM 84.9 °F 86.1 °F 64.0 °F 49% 30.10 in 10.0 mi SE 10.4 mph - N/A   Scattered Clouds
4:56 PM 82.0 °F 83.1 °F 63.0 °F 52% 30.09 in 10.0 mi South 10.4 mph - N/A   Scattered Clouds
5:56 PM 82.9 °F 84.0 °F 63.0 °F 51% 30.09 in 10.0 mi South 12.7 mph - N/A   Scattered Clouds
6:56 PM 82.0 °F 82.7 °F 61.0 °F 49% 30.10 in 10.0 mi SSW 9.2 mph - N/A   Partly Cloudy
7:56 PM 79.0 °F - 62.1 °F 56% 30.09 in 10.0 mi South 9.2 mph - N/A   Partly Cloudy
8:56 PM 75.9 °F - 63.0 °F 64% 30.08 in 10.0 mi South 6.9 mph - N/A   Partly Cloudy
9:56 PM 73.9 °F - 64.0 °F 71% 30.09 in 10.0 mi South 5.8 mph - N/A   Clear
10:56 PM 73.9 °F - 64.9 °F 73% 30.11 in 10.0 mi South 3.5 mph - N/A   Clear
11:56 PM 73.0 °F - 64.9 °F 76% 30.11 in 10.0 mi Calm Calm - N/A   Clear